When you browse on this site, cookies collect data to enhance your experience and personalize the content and advertising you see.
Visit our Privacy Policy to learn more. By continuing to use the site, you agree to this use of cookies and data.
  • In Spain
  • List of Countries
  • For 7 days
  • Water Temperature
  • Weather Map
  • Weather Widgets
  • user-avatar
    Login

    Hourly Weather Encamp

    Today, 26 May, Tuesday

    Time Temperature Precipitation Wind Pressure Humidity
    00:00 +8°C° 0 mm 1 mps 629 mmHg 86%
    01:00 +8°C° 0 mm 1 mps 629 mmHg 83%
    02:00 +8°C° 0 mm 1 mps 629 mmHg 79%
    03:00 +7°C° 0 mm 1 mps 629 mmHg 76%
    04:00 +8°C° 0 mm 1 mps 629 mmHg 73%
    05:00 +9°C° 0 mm 1 mps 630 mmHg 70%
    06:00 +10°C° 0 mm 1 mps 630 mmHg 67%
    07:00 +13°C° 0 mm 1 mps 631 mmHg 60%
    08:00 +15°C° 0 mm 1 mps 632 mmHg 52%
    09:00 +19°C° 0 mm 1 mps 633 mmHg 45%
    10:00 +20°C° 0 mm 1 mps 633 mmHg 44%
    11:00 +21°C° 0 mm 1 mps 634 mmHg 42%
    12:00 +21°C° 0 mm 2 mps 634 mmHg 41%
    13:00 +20°C° 0 mm 2 mps 633 mmHg 45%
    14:00 +20°C° 0 mm 2 mps 633 mmHg 50%
    15:00 +19°C° 0 mm 2 mps 632 mmHg 55%
    16:00 +18°C° 0.2 mm 2 mps 632 mmHg 65%
    17:00 +16°C° 0.2 mm 2 mps 631 mmHg 74%
    18:00 +15°C° 0.2 mm 1 mps 630 mmHg 84%
    19:00 +13°C° 0.1 mm 1 mps 630 mmHg 87%
    20:00 +12°C° 0.1 mm 1 mps 630 mmHg 89%
    21:00 +11°C° 0.1 mm 1 mps 630 mmHg 92%
    22:00 +10°C° 0 mm 1 mps 629 mmHg 88%
    23:00 +9°C° 0 mm 1 mps 629 mmHg 85%

    Tomorrow, 27 May, Wednesday

    Time Temperature Precipitation Wind Pressure Humidity
    00:00 +7°C° 0 mm 2 mps 629 mmHg 81%
    01:00 +7°C° 0 mm 2 mps 628 mmHg 76%
    02:00 +8°C° 0 mm 1 mps 628 mmHg 71%
    03:00 +7°C° 0 mm 1 mps 628 mmHg 65%
    04:00 +8°C° 0 mm 1 mps 629 mmHg 65%
    05:00 +9°C° 0 mm 1 mps 629 mmHg 65%
    06:00 +10°C° 0 mm 1 mps 630 mmHg 65%
    07:00 +13°C° 0 mm 1 mps 631 mmHg 57%
    08:00 +15°C° 0 mm 1 mps 632 mmHg 50%
    09:00 +19°C° 0 mm 1 mps 633 mmHg 42%
    10:00 +19°C° 0 mm 1 mps 633 mmHg 41%
    11:00 +19°C° 0 mm 2 mps 633 mmHg 41%
    12:00 +20°C° 0 mm 2 mps 633 mmHg 40%
    13:00 +19°C° 0.1 mm 2 mps 633 mmHg 49%
    14:00 +18°C° 0.1 mm 2 mps 632 mmHg 57%
    15:00 +17°C° 0.1 mm 2 mps 632 mmHg 65%
    16:00 +16°C° 0.3 mm 2 mps 632 mmHg 72%
    17:00 +15°C° 0.3 mm 1 mps 631 mmHg 78%
    18:00 +14°C° 0.3 mm 1 mps 631 mmHg 85%
    19:00 +13°C° 0.1 mm 1 mps 631 mmHg 88%
    20:00 +12°C° 0.1 mm 1 mps 631 mmHg 91%
    21:00 +11°C° 0.1 mm 1 mps 631 mmHg 95%
    22:00 +11°C° 0 mm 1 mps 631 mmHg 95%
    23:00 +11°C° 0 mm 1 mps 630 mmHg 95%

    Day after tomorrow, 28 May, Thursday

    Time Temperature Precipitation Wind Pressure Humidity
    00:00 +10°C° 0 mm 1 mps 630 mmHg 94%
    01:00 +10°C° 0 mm 1 mps 630 mmHg 94%
    02:00 +10°C° 0 mm 1 mps 630 mmHg 94%
    03:00 +10°C° 0 mm 1 mps 629 mmHg 94%
    04:00 +10°C° 0 mm 1 mps 629 mmHg 91%
    05:00 +11°C° 0 mm 1 mps 629 mmHg 89%
    06:00 +11°C° 0 mm 1 mps 630 mmHg 87%
    07:00 +13°C° 0 mm 1 mps 630 mmHg 75%
    08:00 +15°C° 0 mm 1 mps 631 mmHg 63%
    09:00 +18°C° 0 mm 1 mps 632 mmHg 51%
    10:00 +18°C° 0 mm 1 mps 632 mmHg 50%
    11:00 +18°C° 0 mm 2 mps 632 mmHg 49%
    12:00 +19°C° 0 mm 2 mps 631 mmHg 48%
    13:00 +18°C° 0.4 mm 2 mps 631 mmHg 54%
    14:00 +17°C° 0.4 mm 2 mps 630 mmHg 60%
    15:00 +18°C° 0.4 mm 1 mps 630 mmHg 66%
    16:00 +16°C° 0.4 mm 1 mps 629 mmHg 70%
    17:00 +15°C° 0.4 mm 1 mps 629 mmHg 74%
    18:00 +14°C° 0.4 mm 1 mps 628 mmHg 79%
    19:00 +13°C° 0 mm 1 mps 628 mmHg 83%
    20:00 +11°C° 0 mm 1 mps 628 mmHg 88%
    21:00 +10°C° 0 mm 1 mps 627 mmHg 92%
    22:00 +10°C° 0 mm 1 mps 627 mmHg 90%
    23:00 +9°C° 0 mm 1 mps 627 mmHg 89%

    29 May, Friday

    Time Temperature Precipitation Wind Pressure Humidity
    00:00 +9°C° 0 mm 1 mps 626 mmHg 87%
    01:00 +9°C° 0 mm 1 mps 626 mmHg 82%
    02:00 +8°C° 0 mm 1 mps 626 mmHg 77%
    03:00 +8°C° 0 mm 1 mps 625 mmHg 72%
    04:00 +9°C° 0 mm 1 mps 626 mmHg 71%
    05:00 +10°C° 0 mm 1 mps 626 mmHg 69%
    06:00 +11°C° 0 mm 1 mps 626 mmHg 68%
    07:00 +13°C° 0 mm 1 mps 627 mmHg 58%
    08:00 +16°C° 0 mm 1 mps 628 mmHg 49%
    09:00 +19°C° 0 mm 1 mps 629 mmHg 39%
    10:00 +20°C° 0 mm 1 mps 629 mmHg 38%
    11:00 +21°C° 0 mm 1 mps 629 mmHg 36%
    12:00 +21°C° 0 mm 2 mps 629 mmHg 35%
    13:00 +20°C° 0.1 mm 2 mps 629 mmHg 39%
    14:00 +20°C° 0.1 mm 2 mps 628 mmHg 43%
    15:00 +20°C° 0.1 mm 2 mps 628 mmHg 47%
    16:00 +19°C° 0.4 mm 1 mps 627 mmHg 57%
    17:00 +18°C° 0.4 mm 1 mps 627 mmHg 67%
    18:00 +15°C° 0.4 mm 1 mps 626 mmHg 78%
    19:00 +14°C° 0 mm 1 mps 625 mmHg 82%
    20:00 +12°C° 0 mm 1 mps 625 mmHg 87%
    21:00 +9°C° 0 mm 0 mps 625 mmHg 92%
    22:00 +10°C° 0 mm 1 mps 624 mmHg 91%
    23:00 +10°C° 0 mm 1 mps 624 mmHg 91%

    30 May, Saturday

    Time Temperature Precipitation Wind Pressure Humidity
    00:00 +10°C° 0 mm 1 mps 624 mmHg 90%
    01:00 +10°C° 0 mm 1 mps 624 mmHg 89%
    02:00 +9°C° 0 mm 1 mps 623 mmHg 88%
    03:00 +9°C° 0 mm 1 mps 623 mmHg 86%
    04:00 +10°C° 0 mm 1 mps 624 mmHg 83%
    05:00 +11°C° 0 mm 1 mps 624 mmHg 79%
    06:00 +12°C° 0 mm 1 mps 624 mmHg 76%
    07:00 +14°C° 0 mm 1 mps 625 mmHg 65%
    08:00 +16°C° 0 mm 1 mps 626 mmHg 55%
    09:00 +19°C° 0 mm 1 mps 627 mmHg 44%
    10:00 +19°C° 0 mm 2 mps 627 mmHg 42%
    11:00 +20°C° 0 mm 2 mps 627 mmHg 39%
    12:00 +20°C° 0 mm 2 mps 627 mmHg 37%
    13:00 +20°C° 0.1 mm 2 mps 627 mmHg 41%
    14:00 +20°C° 0.1 mm 2 mps 627 mmHg 44%
    15:00 +19°C° 0.1 mm 2 mps 627 mmHg 48%
    16:00 +18°C° 0.2 mm 2 mps 626 mmHg 57%
    17:00 +18°C° 0.2 mm 1 mps 626 mmHg 67%
    18:00 +15°C° 0.2 mm 1 mps 625 mmHg 77%
    19:00 +14°C° 0 mm 1 mps 625 mmHg 83%
    20:00 +12°C° 0 mm 1 mps 625 mmHg 88%
    21:00 +10°C° 0 mm 0 mps 624 mmHg 94%
    22:00 +10°C° 0 mm 1 mps 624 mmHg 94%
    23:00 +10°C° 0 mm 1 mps 624 mmHg 93%

    31 May, Sunday

    Time Temperature Precipitation Wind Pressure Humidity
    00:00 +10°C° 0 mm 1 mps 624 mmHg 93%
    01:00 +10°C° 0 mm 1 mps 624 mmHg 93%
    02:00 +10°C° 0 mm 1 mps 624 mmHg 92%
    03:00 +9°C° 0 mm 1 mps 623 mmHg 92%
    04:00 +10°C° 0 mm 1 mps 624 mmHg 90%
    05:00 +11°C° 0 mm 1 mps 624 mmHg 88%
    06:00 +12°C° 0 mm 1 mps 625 mmHg 86%
    07:00 +14°C° 0 mm 1 mps 626 mmHg 76%
    08:00 +16°C° 0 mm 1 mps 626 mmHg 66%
    09:00 +19°C° 0 mm 1 mps 627 mmHg 57%
    10:00 +19°C° 0.1 mm 2 mps 627 mmHg 55%
    11:00 +19°C° 0.1 mm 2 mps 627 mmHg 54%
    12:00 +20°C° 0.1 mm 2 mps 627 mmHg 53%
    13:00 +19°C° 1 mm 2 mps 627 mmHg 58%
    14:00 +19°C° 1 mm 1 mps 626 mmHg 63%
    15:00 +19°C° 1 mm 1 mps 626 mmHg 68%
    16:00 +18°C° 1.3 mm 1 mps 625 mmHg 74%
    17:00 +16°C° 1.3 mm 1 mps 624 mmHg 79%
    18:00 +14°C° 1.3 mm 1 mps 624 mmHg 85%
    19:00 +13°C° 0.5 mm 1 mps 624 mmHg 86%
    20:00 +13°C° 0.5 mm 1 mps 624 mmHg 86%
    21:00 +12°C° 0.5 mm 1 mps 624 mmHg 87%
    22:00 +12°C° 0 mm 1 mps 623 mmHg 88%
    23:00 +11°C° 0 mm 1 mps 623 mmHg 89%
    Show more